| time (UTC) | temp F | wind direction | speed MPH | gust MPH | rain 1hr in | rain 24hr in | rain mn in | humidity % | barometer mb |
| 20260507150044 | 74 | 360 | 1.0 | 4.0 | 0.00 | 0.00 | 0.00 | 31 | 978.1 |
| 20260507145544 | 74 | 360 | 2.0 | 4.0 | 0.00 | 0.00 | 0.00 | 30 | 978.1 |
| 20260507145044 | 74 | 360 | 1.0 | 3.0 | 0.00 | 0.00 | 0.00 | 30 | 978.0 |
| 20260507144546 | 74 | 360 | 1.0 | 4.0 | 0.00 | 0.00 | 0.00 | 30 | 978.3 |
| 20260507144044 | 74 | 360 | 2.0 | 5.0 | 0.00 | 0.00 | 0.00 | 29 | 978.3 |
| 20260507143544 | 74 | 360 | 3.0 | 5.0 | 0.00 | 0.00 | 0.00 | 29 | 978.2 |
| 20260507143049 | 74 | 360 | 2.0 | 3.0 | 0.00 | 0.00 | 0.00 | 31 | 978.2 |
| 20260507142545 | 73 | 360 | 1.0 | 3.0 | 0.00 | 0.00 | 0.00 | 27 | 978.2 |
| 20260507142044 | 73 | 360 | 2.0 | 4.0 | 0.00 | 0.00 | 0.00 | 27 | 978.1 |
| 20260507141546 | 73 | 360 | 2.0 | 4.0 | 0.00 | 0.00 | 0.00 | 27 | 978.1 |
| 20260507141044 | 72 | 360 | 1.0 | 2.0 | 0.00 | 0.00 | 0.00 | 27 | 978.0 |
| 20260507140545 | 72 | 360 | 1.0 | 4.0 | 0.00 | 0.00 | 0.00 | 28 | 978.0 |
| 20260507140055 | 71 | 360 | 2.0 | 4.0 | 0.00 | 0.00 | 0.00 | 28 | 978.0 |
| 20260507135544 | 71 | 360 | 2.0 | 4.0 | 0.00 | 0.00 | 0.00 | 28 | 978.0 |
| 20260507135044 | 70 | 360 | 0.0 | 5.0 | 0.00 | 0.00 | 0.00 | 29 | 978.0 |
| 20260507134544 | 69 | 360 | 2.0 | 5.0 | 0.00 | 0.00 | 0.00 | 29 | 978.0 |
| 20260507134044 | 69 | 360 | 3.0 | 4.0 | 0.00 | 0.00 | 0.00 | 29 | 977.9 |
| 20260507133544 | 69 | 360 | 3.0 | 6.0 | 0.00 | 0.00 | 0.00 | 28 | 977.9 |
| 20260507133044 | 69 | 360 | 4.0 | 6.0 | 0.00 | 0.00 | 0.00 | 29 | 977.9 |
| 20260507132544 | 69 | 360 | 0.0 | 1.0 | 0.00 | 0.00 | 0.00 | 29 | 977.8 |
| 20260507132044 | 68 | 360 | 0.0 | 0.0 | 0.00 | 0.00 | 0.00 | 30 | 977.8 |
| 20260507131546 | 68 | 360 | 0.0 | 2.0 | 0.00 | 0.00 | 0.00 | 30 | 977.7 |
| 20260507131044 | 68 | 360 | 1.0 | 2.0 | 0.00 | 0.00 | 0.00 | 30 | 977.8 |
| 20260507130544 | 68 | 360 | 1.0 | 5.0 | 0.00 | 0.00 | 0.00 | 30 | 977.8 |
| 20260507130058 | 69 | 360 | 1.0 | 5.0 | 0.00 | 0.00 | 0.00 | 30 | 977.7 |
| 20260507125544 | 69 | 360 | 2.0 | 4.0 | 0.00 | 0.00 | 0.00 | 30 | 977.7 |
| 20260507125044 | 69 | 360 | 0.0 | 0.0 | 0.00 | 0.00 | 0.00 | 30 | 977.7 |
| 20260507124559 | 69 | 360 | 0.0 | 0.0 | 0.00 | 0.00 | 0.00 | 30 | 977.6 |
| 20260507124044 | 69 | 360 | 0.0 | 0.0 | 0.00 | 0.00 | 0.00 | 30 | 977.7 |
| 20260507123544 | 69 | 360 | 0.0 | 0.0 | 0.00 | 0.00 | 0.00 | 30 | 977.7 |
| 20260507123044 | 69 | 360 | 0.0 | 0.0 | 0.00 | 0.00 | 0.00 | 30 | 977.6 |
| 20260507122545 | 69 | 360 | 0.0 | 1.0 | 0.00 | 0.00 | 0.00 | 30 | 977.7 |
| 20260507122044 | 69 | 360 | 0.0 | 5.0 | 0.00 | 0.00 | 0.00 | 30 | 977.7 |
| 20260507121545 | 69 | 360 | 1.0 | 5.0 | 0.00 | 0.00 | 0.00 | 30 | 977.7 |
| 20260507121043 | 69 | 360 | 2.0 | 5.0 | 0.00 | 0.00 | 0.00 | 30 | 977.6 |
| 20260507120544 | 69 | 360 | 3.0 | 5.0 | 0.00 | 0.00 | 0.00 | 30 | 977.5 |
| 20260507120044 | 69 | 360 | 1.0 | 5.0 | 0.00 | 0.00 | 0.00 | 30 | 977.6 |
| 20260507115545 | 69 | 360 | 2.0 | 5.0 | 0.00 | 0.00 | 0.00 | 30 | 977.6 |
| 20260507115043 | 69 | 360 | 2.0 | 4.0 | 0.00 | 0.00 | 0.00 | 31 | 977.6 |
| 20260507114605 | 69 | 360 | 2.0 | 6.0 | 0.00 | 0.00 | 0.00 | 30 | 977.7 |
| 20260507114045 | 69 | 360 | 4.0 | 6.0 | 0.00 | 0.00 | 0.00 | 30 | 977.7 |
| 20260507113545 | 69 | 360 | 3.0 | 6.0 | 0.00 | 0.00 | 0.00 | 30 | 977.6 |
| 20260507113044 | 68 | 360 | 4.0 | 6.0 | 0.00 | 0.00 | 0.00 | 30 | 977.7 |
| 20260507112545 | 68 | 360 | 3.0 | 5.0 | 0.00 | 0.00 | 0.00 | 30 | 977.8 |
| 20260507112047 | 69 | 360 | 2.0 | 4.0 | 0.00 | 0.00 | 0.00 | 29 | 977.7 |
| 20260507111544 | 69 | 360 | 3.0 | 6.0 | 0.00 | 0.00 | 0.00 | 30 | 977.7 |
| 20260507111045 | 69 | 360 | 2.0 | 6.0 | 0.00 | 0.00 | 0.00 | 30 | 977.7 |
| 20260507110544 | 69 | 360 | 2.0 | 3.0 | 0.00 | 0.00 | 0.00 | 28 | 977.7 |
| 20260507110047 | 69 | 360 | 0.0 | 3.0 | 0.00 | 0.00 | 0.00 | 29 | 977.8 |
| 20260507105543 | 69 | 360 | 1.0 | 2.0 | 0.00 | 0.00 | 0.00 | 29 | 977.8 |
| 20260507105044 | 68 | 360 | 1.0 | 3.0 | 0.00 | 0.00 | 0.00 | 30 | 978.0 |
| 20260507104551 | 68 | 360 | 2.0 | 3.0 | 0.00 | 0.00 | 0.00 | 30 | 977.9 |
| 20260507104044 | 67 | 360 | 1.0 | 3.0 | 0.00 | 0.00 | 0.00 | 31 | 978.0 |
| 20260507103545 | 67 | 360 | 0.0 | 3.0 | 0.00 | 0.00 | 0.00 | 32 | 978.0 |
| 20260507103044 | 67 | 360 | 1.0 | 3.0 | 0.00 | 0.00 | 0.00 | 32 | 977.9 |
| 20260507102545 | 67 | 360 | 0.0 | 3.0 | 0.00 | 0.00 | 0.00 | 33 | 978.1 |
| 20260507102044 | 67 | 360 | 1.0 | 3.0 | 0.00 | 0.00 | 0.00 | 33 | 978.0 |
| 20260507101548 | 67 | 360 | 0.0 | 4.0 | 0.00 | 0.00 | 0.00 | 32 | 978.1 |
| 20260507101043 | 67 | 360 | 1.0 | 3.0 | 0.00 | 0.00 | 0.00 | 32 | 978.1 |
| 20260507100544 | 68 | 360 | 1.0 | 4.0 | 0.00 | 0.00 | 0.00 | 32 | 978.0 |
| 20260507100046 | 68 | 360 | 1.0 | 4.0 | 0.00 | 0.00 | 0.00 | 31 | 978.1 |
| 20260507095544 | 68 | 360 | 2.0 | 4.0 | 0.00 | 0.00 | 0.00 | 32 | 978.1 |
| 20260507095043 | 68 | 360 | 1.0 | 8.0 | 0.00 | 0.00 | 0.00 | 32 | 978.1 |
| 20260507094545 | 69 | 360 | 3.0 | 9.0 | 0.00 | 0.00 | 0.00 | 31 | 978.2 |
| 20260507094048 | 69 | 360 | 5.0 | 10.0 | 0.00 | 0.00 | 0.00 | 30 | 978.1 |
| 20260507093547 | 69 | 360 | 3.0 | 6.0 | 0.00 | 0.00 | 0.00 | 29 | 978.1 |
| 20260507093045 | 69 | 360 | 2.0 | 5.0 | 0.00 | 0.00 | 0.00 | 29 | 977.9 |
| 20260507092544 | 69 | 360 | 3.0 | 6.0 | 0.00 | 0.00 | 0.00 | 30 | 977.9 |
| 20260507092044 | 69 | 360 | 3.0 | 8.0 | 0.00 | 0.00 | 0.00 | 30 | 977.9 |
| 20260507091545 | 69 | 360 | 4.0 | 8.0 | 0.00 | 0.00 | 0.00 | 31 | 977.9 |
| 20260507091044 | 69 | 360 | 5.0 | 10.0 | 0.00 | 0.00 | 0.00 | 31 | 977.9 |
| 20260507090544 | 69 | 360 | 5.0 | 10.0 | 0.00 | 0.00 | 0.00 | 32 | 978.0 |
| 20260507090045 | 69 | 360 | 4.0 | 6.0 | 0.00 | 0.00 | 0.00 | 31 | 977.9 |
| 20260507085546 | 70 | 360 | 3.0 | 6.0 | 0.00 | 0.00 | 0.00 | 33 | 978.0 |
| 20260507085044 | 70 | 360 | 4.0 | 6.0 | 0.00 | 0.00 | 0.00 | 32 | 978.1 |
| 20260507084544 | 71 | 360 | 3.0 | 6.0 | 0.00 | 0.00 | 0.00 | 32 | 978.1 |
| 20260507084044 | 71 | 360 | 2.0 | 6.0 | 0.00 | 0.00 | 0.00 | 31 | 978.1 |
| 20260507083546 | 72 | 360 | 3.0 | 6.0 | 0.00 | 0.00 | 0.00 | 29 | 978.1 |
| 20260507083044 | 73 | 360 | 4.0 | 6.0 | 0.00 | 0.00 | 0.00 | 29 | 978.0 |
| 20260507082544 | 75 | 360 | 3.0 | 6.0 | 0.00 | 0.00 | 0.00 | 26 | 978.0 |
| 20260507082044 | 76 | 360 | 3.0 | 10.0 | 0.00 | 0.00 | 0.00 | 24 | 978.0 |
| 20260507081544 | 76 | 360 | 2.0 | 11.0 | 0.00 | 0.00 | 0.00 | 24 | 978.0 |
| 20260507081044 | 76 | 360 | 6.0 | 11.0 | 0.00 | 0.00 | 0.00 | 21 | 978.1 |
| 20260507080544 | 76 | 360 | 5.0 | 10.0 | 0.00 | 0.00 | 0.00 | 21 | 978.1 |
| 20260507080044 | 76 | 360 | 4.0 | 10.0 | 0.00 | 0.00 | 0.00 | 21 | 978.2 |
| 20260507075544 | 76 | 360 | 5.0 | 10.0 | 0.00 | 0.00 | 0.00 | 21 | 978.2 |
| 20260507075046 | 76 | 360 | 4.0 | 10.0 | 0.00 | 0.00 | 0.00 | 21 | 978.2 |
| 20260507074559 | 76 | 360 | 4.0 | 10.0 | 0.00 | 0.00 | 0.00 | 21 | 978.2 |
| 20260507074044 | 76 | 360 | 6.0 | 12.0 | 0.00 | 0.00 | 0.00 | 21 | 978.2 |
| 20260507073548 | 76 | 360 | 5.0 | 12.0 | 0.00 | 0.00 | 0.00 | 21 | 978.2 |
| 20260507073047 | 75 | 360 | 6.0 | 11.0 | 0.00 | 0.00 | 0.00 | 22 | 978.3 |
| 20260507072544 | 75 | 360 | 3.0 | 8.0 | 0.00 | 0.00 | 0.00 | 24 | 978.3 |
| 20260507072043 | 75 | 360 | 3.0 | 9.0 | 0.00 | 0.00 | 0.00 | 23 | 978.3 |
| 20260507071550 | 75 | 360 | 4.0 | 9.0 | 0.00 | 0.00 | 0.00 | 24 | 978.3 |
| 20260507071044 | 75 | 360 | 5.0 | 9.0 | 0.00 | 0.00 | 0.00 | 23 | 978.3 |
| 20260507070544 | 76 | 360 | 5.0 | 9.0 | 0.00 | 0.00 | 0.00 | 23 | 978.3 |
| 20260507070059 | 77 | 360 | 4.0 | 12.0 | 0.00 | 0.00 | 0.00 | 22 | 978.3 |
| 20260507065544 | 77 | 360 | 6.0 | 12.0 | 0.00 | 0.00 | 0.00 | 20 | 978.3 |
| 20260507065045 | 77 | 360 | 8.0 | 11.0 | 0.00 | 0.00 | 0.00 | 20 | 978.3 |
| 20260507064544 | 78 | 360 | 6.0 | 12.0 | 0.00 | 0.00 | 0.00 | 20 | 978.3 |
| 20260507064044 | 78 | 360 | 6.0 | 12.0 | 0.00 | 0.00 | 0.00 | 20 | 978.3 |
| 20260507063545 | 78 | 360 | 6.0 | 12.0 | 0.00 | 0.00 | 0.00 | 20 | 978.4 |
| 20260507063055 | 78 | 360 | 6.0 | 11.0 | 0.00 | 0.00 | 0.00 | 20 | 978.4 |
| 20260507062544 | 78 | 360 | 5.0 | 10.0 | 0.00 | 0.00 | 0.00 | 20 | 978.4 |
| 20260507062044 | 78 | 360 | 6.0 | 11.0 | 0.00 | 0.00 | 0.00 | 20 | 978.3 |
| 20260507061547 | 78 | 360 | 6.0 | 13.0 | 0.00 | 0.00 | 0.00 | 20 | 978.3 |
| 20260507061043 | 78 | 360 | 7.0 | 13.0 | 0.00 | 0.00 | 0.00 | 20 | 978.3 |
| 20260507060547 | 78 | 360 | 6.0 | 11.0 | 0.00 | 0.00 | 0.00 | 20 | 978.3 |
| 20260507060046 | 78 | 360 | 6.0 | 11.0 | 0.00 | 0.00 | 0.00 | 20 | 978.4 |
| 20260507055545 | 78 | 360 | 6.0 | 12.0 | 0.00 | 0.00 | 0.00 | 20 | 978.4 |
| 20260507055044 | 79 | 360 | 6.0 | 11.0 | 0.00 | 0.00 | 0.00 | 20 | 978.3 |
| 20260507054545 | 79 | 360 | 6.0 | 12.0 | 0.00 | 0.00 | 0.00 | 20 | 978.3 |
| 20260507054045 | 79 | 360 | 7.0 | 12.0 | 0.00 | 0.00 | 0.00 | 20 | 978.3 |
| 20260507053544 | 79 | 360 | 6.0 | 10.0 | 0.00 | 0.00 | 0.00 | 20 | 978.3 |
| 20260507053044 | 78 | 360 | 7.0 | 11.0 | 0.00 | 0.00 | 0.00 | 20 | 978.3 |
| 20260507052548 | 78 | 360 | 5.0 | 11.0 | 0.00 | 0.00 | 0.00 | 20 | 978.3 |
| 20260507052044 | 79 | 360 | 7.0 | 10.0 | 0.00 | 0.00 | 0.00 | 20 | 978.3 |
| 20260507051544 | 79 | 360 | 5.0 | 9.0 | 0.00 | 0.00 | 0.00 | 20 | 978.2 |
| 20260507051043 | 79 | 360 | 4.0 | 11.0 | 0.00 | 0.00 | 0.00 | 20 | 978.2 |
| 20260507050544 | 79 | 360 | 4.0 | 11.0 | 0.00 | 0.00 | 0.00 | 20 | 978.1 |
| 20260507050044 | 79 | 360 | 3.0 | 9.0 | 0.00 | 0.00 | 0.00 | 20 | 978.1 |
| 20260507045544 | 79 | 360 | 4.0 | 9.0 | 0.00 | 0.00 | 0.00 | 20 | 978.1 |
| 20260507045044 | 79 | 360 | 6.0 | 9.0 | 0.00 | 0.00 | 0.00 | 20 | 978.0 |
| 20260507044545 | 79 | 360 | 6.0 | 9.0 | 0.00 | 0.00 | 0.00 | 20 | 978.1 |
| 20260507044047 | 79 | 360 | 4.0 | 9.0 | 0.00 | 0.00 | 0.00 | 20 | 978.1 |
| 20260507043544 | 79 | 360 | 4.0 | 8.0 | 0.00 | 0.00 | 0.00 | 20 | 978.1 |
| 20260507043044 | 79 | 360 | 3.0 | 8.0 | 0.00 | 0.00 | 0.00 | 20 | 978.0 |
| 20260507042544 | 79 | 360 | 3.0 | 9.0 | 0.00 | 0.00 | 0.00 | 20 | 978.0 |
| 20260507042044 | 80 | 360 | 5.0 | 10.0 | 0.00 | 0.00 | 0.00 | 20 | 977.9 |
| 20260507041544 | 80 | 360 | 6.0 | 10.0 | 0.00 | 0.00 | 0.00 | 20 | 977.9 |
| 20260507041044 | 80 | 360 | 4.0 | 11.0 | 0.00 | 0.00 | 0.00 | 20 | 977.9 |
| 20260507040546 | 80 | 360 | 6.0 | 12.0 | 0.00 | 0.00 | 0.00 | 20 | 977.9 |
| 20260507040044 | 80 | 360 | 7.0 | 12.0 | 0.00 | 0.00 | 0.00 | 20 | 977.9 |
| 20260507035544 | 80 | 360 | 7.0 | 12.0 | 0.00 | 0.00 | 0.00 | 20 | 977.7 |
| 20260507035045 | 80 | 360 | 6.0 | 10.0 | 0.00 | 0.00 | 0.00 | 19 | 977.7 |
| 20260507034544 | 80 | 360 | 4.0 | 10.0 | 0.00 | 0.00 | 0.00 | 19 | 977.6 |
| 20260507034044 | 80 | 360 | 4.0 | 10.0 | 0.00 | 0.00 | 0.00 | 19 | 977.5 |
| 20260507033544 | 80 | 360 | 5.0 | 8.0 | 0.00 | 0.00 | 0.00 | 19 | 977.4 |
| 20260507033046 | 81 | 360 | 4.0 | 8.0 | 0.00 | 0.00 | 0.00 | 19 | 977.4 |
| 20260506162543 | 73 | 360 | 4.0 | 8.0 | 0.00 | 0.00 | 0.00 | 30 | 980.7 |
| 20260506162043 | 73 | 360 | 4.0 | 6.0 | 0.00 | 0.00 | 0.00 | 30 | 980.7 |
| 20260506161543 | 73 | 360 | 3.0 | 9.0 | 0.00 | 0.00 | 0.00 | 31 | 980.6 |
| 20260506161043 | 72 | 360 | 5.0 | 10.0 | 0.00 | 0.00 | 0.00 | 31 | 980.7 |
| 20260506160543 | 72 | 360 | 4.0 | 10.0 | 0.00 | 0.00 | 0.00 | 31 | 980.6 |
| 20260506160049 | 72 | 360 | 2.0 | 10.0 | 0.00 | 0.00 | 0.00 | 31 | 980.6 |
| 20260506155543 | 72 | 360 | 5.0 | 9.0 | 0.00 | 0.00 | 0.00 | 31 | 980.6 |
| 20260506155043 | 71 | 360 | 1.0 | 10.0 | 0.00 | 0.00 | 0.00 | 32 | 980.6 |
| 20260506154550 | 71 | 360 | 5.0 | 10.0 | 0.00 | 0.00 | 0.00 | 32 | 980.6 |
| 20260506154043 | 70 | 360 | 4.0 | 10.0 | 0.00 | 0.00 | 0.00 | 33 | 980.7 |
| 20260506153542 | 70 | 360 | 5.0 | 10.0 | 0.00 | 0.00 | 0.00 | 33 | 980.8 |
| 20260506153043 | 69 | 360 | 3.0 | 10.0 | 0.00 | 0.00 | 0.00 | 34 | 980.6 |
| 20260506152543 | 69 | 360 | 6.0 | 9.0 | 0.00 | 0.00 | 0.00 | 34 | 980.6 |
| 20260506152043 | 69 | 360 | 5.0 | 9.0 | 0.00 | 0.00 | 0.00 | 34 | 980.7 |
| 20260506151543 | 69 | 360 | 4.0 | 9.0 | 0.00 | 0.00 | 0.00 | 34 | 980.7 |
| 20260506151043 | 68 | 360 | 3.0 | 8.0 | 0.00 | 0.00 | 0.00 | 35 | 980.8 |
| 20260506150543 | 67 | 360 | 2.0 | 5.0 | 0.00 | 0.00 | 0.00 | 41 | 980.6 |